Zurück zum Katalog

FENGYUN 1C DEB

LostSSO
NORAD 31904·DEBRIS·🇨🇳 China

Gestartet May 10, 1999 von Taiyuan Satellite Launch Center

Loading…

Nächste Überflüge (nächste 24 Stunden)

TLE

VeraltetSource: Space-Track

Epoche: Jul 18, 2019, 06:15 UTC

1 31904U 99025CLF 19199.26083448  .00001435  00000-0  10131-2 0  9997
2 31904  98.9226   5.0139 0182783  86.4909 275.7137 13.91736400611440

Verfolge FENGYUN 1C DEB in Echtzeit mit AllMySat

Download on the App Store